This is the latest recevied weather packets stored in our database for station/object KF0PEC-15. If no packets are shown the sender has not sent any weather packets the latest 10 day(s).
| Time | Temp. | Humidity | Pressure | Rain* | Wind** | Luminosity | Snow |
|---|---|---|---|---|---|---|---|
| 1777584590 | 6.11° C | 72% | 1023.7 hPa | 0 mm | - | 191 W/m² | - |
| 1777584037 | 6.11° C | 72% | 1023.7 hPa | 0 mm | - | 174 W/m² | - |
| 1777583490 | 6.11° C | 72% | 1023.8 hPa | 0 mm | - | 187 W/m² | - |
| 1777583010 | 5.56° C | 72% | 1024.1 hPa | 0 mm | - | 211 W/m² | - |
| 1777582425 | 6.11° C | 72% | 1023.7 hPa | 0 mm | - | 142 W/m² | - |
| 1777581837 | 6.67° C | 71% | 1023.4 hPa | 0 mm | - | 167 W/m² | - |
| 1777581300 | 6.67° C | 69% | 1023.3 hPa | 0 mm | - | 195 W/m² | - |
| 1777580785 | 6.67° C | 69% | 1023.2 hPa | 0 mm | - | 198 W/m² | - |
| 1777580285 | 6.67° C | 69% | 1023.3 hPa | 0 mm | - | 292 W/m² | - |
| 1777579750 | 6.67° C | 70% | 1023.4 hPa | 0 mm | - | 440 W/m² | - |
| 1777579170 | 6.11° C | 69% | 1023.6 hPa | 0 mm | - | 350 W/m² | - |
| 1777578600 | 6.67° C | 70% | 1023.6 hPa | 0 mm | - | 350 W/m² | - |
| 1777578015 | 6.11° C | 71% | 1024 hPa | 0 mm | - | 340 W/m² | - |
| 1777577445 | 6.11° C | 70% | 1024 hPa | 0 mm | - | 278 W/m² | - |
| 1777576848 | 6.11° C | 70% | 1023.9 hPa | 0 mm | - | 326 W/m² | - |
| 1777576330 | 6.11° C | 71% | 1024 hPa | 0 mm | - | 289 W/m² | - |
| 1777575785 | 6.11° C | 71% | 1023.8 hPa | 0 mm | - | 240 W/m² | - |
| 1777575275 | 6.67° C | 70% | 1023.5 hPa | 0 mm | - | 404 W/m² | - |
| 1777574757 | 6.67° C | 70% | 1023.5 hPa | 0 mm | - | 477 W/m² | - |
| 1777574235 | 6.11° C | 71% | 1023.9 hPa | 0 mm | - | 433 W/m² | - |
| 1777573723 | 6.11° C | 71% | 1024 hPa | 0 mm | - | 385 W/m² | - |
| 1777573177 | 6.11° C | 72% | 1024.5 hPa | 0 mm | - | 382 W/m² | - |
| 1777572630 | 5.56° C | 72% | 1024.7 hPa | 0 mm | - | 368 W/m² | - |
| 1777572130 | 5.56° C | 73% | 1024.8 hPa | 0 mm | - | 240 W/m² | - |
| 1777571640 | 5.56° C | 74% | 1024.7 hPa | 0 mm | - | 207 W/m² | - |
* Rain latest hour (hover to see other rain measurements)
** Current wind speed in m/s (hover to see current wind gust speed)